Tracking 18843 objects as of 20-November-2017
HD Live streaming from Space Station
objects crossing your sky now

FENGYUN 1C DEB

Track FENGYUN 1C DEB now!
10-day predictions


NORAD ID: 37903
Int'l Code: 1999-025ENC
Perigee: 699.6 km
Apogee: 1,205.4 km
Inclination: 98.2 °
Period: 104.0 minutes
Semi major axis: 7323 km
RCS: 0.0009 m2 (small)
Launch date: May 10, 1999
Source: People's Republic of China (PRC)
Launch site: Taiyaun Space Center, China (TSC)

Note: This is SATELLITE DEBRIS
aabbcc
Your satellite tracking list
Your tracking list is empty




NASA's NSSDC Master Catalog

Two Line Element Set (TLE):
1 37903U 99025ENC 17319.36100700  .00001706  00000-0  96518-3 0  9991
2 37903  98.1667 153.5489 0345300 298.7555  57.9321 13.85239424500139
Source of the keplerian elements: AFSPC